FW4235 Weather Reports


Display with metric or nautical units.
time (UTC)temp
F
wind
direction
speed
MPH
gust
MPH
rain 1hr
in
rain 24hr
in
rain mn
in
humidity
%
barometer
mb
20260507235507 63 13 0.0 0.0 0.00 0.00 0.00 63 1015.7
20260507235007 63 13 0.0 0.0 0.00 0.00 0.00 63 1015.7
20260507234507 63 13 0.0 0.0 0.00 0.00 0.00 63 1015.8
20260507234007 63 5 0.0 0.0 0.00 0.00 0.00 62 1016.0
20260507233007 63 5 0.0 0.0 0.00 0.00 0.00 62 1016.1
20260507232507 63 5 0.0 0.0 0.00 0.00 0.00 62 1016.2
20260507231507 63 5 0.0 0.0 0.00 0.00 0.00 62 1016.1
20260507231007 63 5 0.0 0.0 0.00 0.00 0.00 62 1016.0
20260507230507 63 5 0.0 0.0 0.00 0.00 0.00 61 1015.9
20260507230008 63 5 0.0 0.0 0.00 0.00 0.00 61 1016.0
20260507225507 64 5 0.0 0.0 0.00 0.00 0.00 61 1016.1
20260507225007 64 5 0.0 0.0 0.00 0.00 0.00 61 1016.2
20260507224008 64 5 0.0 0.0 0.00 0.00 0.00 60 1016.3
20260507223508 64 5 0.0 0.0 0.00 0.00 0.00 60 1016.3
20260507223008 64 337 0.0 0.0 0.00 0.00 0.00 60 1016.4
20260507222507 64 336 0.0 0.0 0.00 0.00 0.00 59 1016.4
20260507222007 64 252 0.0 0.0 0.00 0.00 0.00 59 1016.4
20260507221507 64 248 0.0 0.0 0.00 0.00 0.00 58 1016.4
20260507221008 64 248 0.0 0.0 0.00 0.00 0.00 57 1016.5
20260507220509 64 248 0.0 0.0 0.00 0.00 0.00 56 1016.5
20260507220007 64 248 0.0 0.0 0.00 0.00 0.00 56 1016.5
20260507215509 64 248 0.0 0.0 0.00 0.00 0.00 55 1016.6
20260507215008 64 248 0.0 0.0 0.00 0.00 0.00 54 1016.8
20260507214007 65 248 0.0 0.0 0.00 0.00 0.00 52 1016.9
20260507213008 65 248 0.0 0.0 0.00 0.00 0.00 50 1016.9
20260507212507 65 248 0.0 0.0 0.00 0.00 0.00 50 1016.9
20260507211507 65 248 0.0 0.0 0.00 0.00 0.00 50 1016.9
20260507211008 65 248 0.0 0.0 0.00 0.00 0.00 49 1017.0
20260507205507 65 272 0.0 0.0 0.00 0.00 0.00 48 1016.9
20260507204507 65 244 0.0 0.0 0.00 0.00 0.00 47 1016.8
20260507204007 65 242 0.0 0.0 0.00 0.00 0.00 47 1016.8
20260507203508 66 243 0.0 0.0 0.00 0.00 0.00 46 1016.8
20260507202507 66 284 0.0 0.0 0.00 0.00 0.00 44 1016.8
20260507202007 66 250 0.0 0.0 0.00 0.00 0.00 43 1017.0
20260507201007 67 240 0.0 0.0 0.00 0.00 0.00 41 1016.9
20260507200507 67 247 0.0 0.0 0.00 0.00 0.00 40 1016.9
20260507200007 67 253 0.0 0.0 0.00 0.00 0.00 40 1016.7
20260507195508 67 322 0.0 0.0 0.00 0.00 0.00 38 1016.6
20260507195007 67 323 0.0 0.0 0.00 0.00 0.00 38 1016.7
20260507194008 67 323 0.0 0.0 0.00 0.00 0.00 38 1016.7
20260507192507 66 225 0.0 0.0 0.00 0.00 0.00 39 1016.7
20260507191507 67 36 0.0 0.0 0.00 0.00 0.00 42 1016.6
20260507191008 67 54 0.0 0.0 0.00 0.00 0.00 42 1016.6
20260507190507 67 57 0.0 0.0 0.00 0.00 0.00 43 1016.5
20260507190007 66 47 0.0 0.0 0.00 0.00 0.00 43 1016.5
20260507185008 66 328 0.0 0.0 0.00 0.00 0.00 43 1016.7
20260507184507 66 346 0.0 0.0 0.00 0.00 0.00 44 1016.7
20260507184007 66 287 0.0 0.0 0.00 0.00 0.00 45 1016.5
20260507183507 66 255 0.0 0.0 0.00 0.00 0.00 45 1016.5
20260507183008 67 255 0.0 0.0 0.00 0.00 0.00 45 1016.5
20260507182507 67 255 0.0 0.0 0.00 0.00 0.00 46 1016.5
20260507182007 67 255 0.0 0.0 0.00 0.00 0.00 45 1016.5
20260507181507 67 246 0.0 0.0 0.00 0.00 0.00 45 1016.6
20260507181007 67 246 0.0 0.0 0.00 0.00 0.00 44 1016.6
20260507180507 67 251 0.0 0.0 0.00 0.00 0.00 44 1016.5
20260507180007 68 150 0.0 0.0 0.00 0.00 0.00 44 1016.4
20260507175507 68 150 0.0 0.0 0.00 0.00 0.00 44 1016.4
20260507175007 68 150 0.0 0.0 0.00 0.00 0.00 43 1016.5
20260507174507 68 150 0.0 0.0 0.00 0.00 0.00 42 1016.2
20260507174007 68 245 0.0 0.0 0.00 0.00 0.00 40 1016.2
20260507173507 68 256 0.0 0.0 0.00 0.00 0.00 41 1016.2
20260507173007 68 232 0.0 0.0 0.00 0.00 0.00 41 1016.4
20260507172007 69 278 0.0 0.0 0.00 0.00 0.00 42 1016.4
20260507171507 69 290 0.0 0.0 0.00 0.00 0.00 42 1016.4
20260507171008 69 146 0.0 0.0 0.00 0.00 0.00 42 1016.3
20260507170507 69 145 0.0 0.0 0.00 0.00 0.00 43 1016.2
20260507170007 69 102 0.0 0.0 0.00 0.00 0.00 43 1016.1
20260507165507 69 104 0.0 0.0 0.00 0.00 0.00 43 1015.9
20260507165007 69 102 0.0 0.0 0.00 0.00 0.00 44 1015.8
20260507164507 69 109 0.0 0.0 0.00 0.00 0.00 44 1015.8
20260507164008 69 81 0.0 0.0 0.00 0.00 0.00 43 1015.7
20260507163007 70 107 0.0 0.0 0.00 0.00 0.00 44 1015.8
20260507162507 70 138 0.0 0.0 0.00 0.00 0.00 44 1015.8
20260507162007 70 148 0.0 0.0 0.00 0.00 0.00 44 1015.8
20260507161007 70 109 0.0 0.0 0.00 0.00 0.00 41 1015.9
20260507160507 70 74 0.0 0.0 0.00 0.00 0.00 40 1015.8
20260507155507 71 129 0.0 0.0 0.00 0.00 0.00 39 1016.0
20260507155007 71 107 0.0 0.0 0.00 0.00 0.00 39 1016.0
20260507154507 71 126 0.0 0.0 0.00 0.00 0.00 38 1016.0
20260507154009 72 139 0.0 0.0 0.00 0.00 0.00 38 1016.0
20260507153507 72 134 0.0 0.0 0.00 0.00 0.00 37 1016.0
20260507153007 72 171 0.0 0.0 0.00 0.00 0.00 37 1016.2
20260507152507 72 170 0.0 0.0 0.00 0.00 0.00 36 1016.4
20260507152007 72 207 0.0 0.0 0.00 0.00 0.00 37 1016.5
20260507151507 72 233 0.0 0.0 0.00 0.00 0.00 36 1016.4
20260507151008 72 223 0.0 0.0 0.00 0.00 0.00 35 1016.3
20260507150507 72 194 0.0 0.0 0.00 0.00 0.00 34 1016.3
20260507145507 71 190 0.0 0.0 0.00 0.00 0.00 38 1016.3
20260507145007 71 185 0.0 0.0 0.00 0.00 0.00 36 1016.3
20260507144007 72 185 0.0 0.0 0.00 0.00 0.00 34 1016.3
20260507143507 72 195 0.0 0.0 0.00 0.00 0.00 34 1016.3
20260507143007 72 202 0.0 0.0 0.00 0.00 0.00 35 1016.2
20260507142507 72 179 0.0 0.0 0.00 0.00 0.00 34 1016.2
20260507142007 72 192 0.0 0.0 0.00 0.00 0.00 32 1016.2
20260507141507 73 206 0.0 0.0 0.00 0.00 0.00 32 1016.2
20260507141007 73 201 0.0 0.0 0.00 0.00 0.00 33 1016.1
20260507140007 74 181 0.0 0.0 0.00 0.00 0.00 32 1015.9
20260507135506 74 171 0.0 0.0 0.00 0.00 0.00 34 1015.8
20260507135007 74 212 0.0 0.0 0.00 0.00 0.00 35 1015.9
20260507134507 74 174 0.0 0.0 0.00 0.00 0.00 34 1015.9
20260507134007 74 188 0.0 0.0 0.00 0.00 0.00 34 1015.7
20260507133507 73 185 0.0 0.0 0.00 0.00 0.00 36 1015.8
20260507133007 73 178 0.0 0.0 0.00 0.00 0.00 34 1015.7
20260507132507 74 168 0.0 0.0 0.00 0.00 0.00 36 1015.7
20260507132007 74 181 0.0 0.0 0.00 0.00 0.00 38 1015.6
20260507131507 73 175 0.0 0.0 0.00 0.00 0.00 40 1015.6
20260507131007 74 173 0.0 0.0 0.00 0.00 0.00 39 1015.6
20260507130507 73 177 0.0 0.0 0.00 0.00 0.00 41 1015.7
20260507130007 73 147 0.0 0.0 0.00 0.00 0.00 41 1015.7
20260507125507 72 185 0.0 0.0 0.00 0.00 0.00 41 1015.9
20260507124507 72 165 0.0 0.0 0.00 0.00 0.00 39 1016.0
20260507124007 73 199 0.0 0.0 0.00 0.00 0.00 37 1016.1
20260507123507 73 183 0.0 0.0 0.00 0.00 0.00 34 1016.1
20260507123007 74 171 0.0 0.0 0.00 0.00 0.00 35 1016.1
20260507122507 74 163 0.0 0.0 0.00 0.00 0.00 33 1016.1
20260507122007 74 161 0.0 0.0 0.00 0.00 0.00 36 1016.2
20260507121507 74 166 0.0 0.0 0.00 0.00 0.00 36 1016.3
20260507121007 74 176 0.0 0.0 0.00 0.00 0.00 34 1016.2
20260507120507 74 177 0.0 0.0 0.00 0.00 0.00 34 1016.3
20260507115507 75 200 0.0 0.0 0.00 0.00 0.00 36 1016.2
20260507115007 74 201 0.0 0.0 0.00 0.00 0.00 37 1016.2
20260507114506 74 175 0.0 0.0 0.00 0.00 0.00 37 1016.2
20260507113507 75 196 0.0 0.0 0.00 0.00 0.00 37 1016.3
20260507113007 75 186 0.0 0.0 0.00 0.00 0.00 39 1016.3
20260507112507 75 197 0.0 0.0 0.00 0.00 0.00 40 1016.2
20260507112007 76 184 0.0 0.0 0.00 0.00 0.00 37 1016.3
20260507111507 76 180 0.0 0.0 0.00 0.00 0.00 36 1016.5
20260507110507 76 190 0.0 0.0 0.00 0.00 0.00 35 1016.3
20260507110007 76 183 0.0 0.0 0.00 0.00 0.00 32 1016.2
20260507105507 76 167 0.0 0.0 0.00 0.00 0.00 34 1016.2
20260507105007 76 173 0.0 0.0 0.00 0.00 0.00 32 1016.3
20260507104507 76 211 0.0 0.0 0.00 0.00 0.00 32 1016.3
20260507104007 77 207 0.0 0.0 0.00 0.00 0.00 32 1016.2
20260507103507 76 195 0.0 0.0 0.00 0.00 0.00 33 1016.2
20260507103007 76 187 0.0 0.0 0.00 0.00 0.00 36 1016.1
20260507102506 77 190 0.0 0.0 0.00 0.00 0.00 34 1015.9
20260507102007 77 196 0.0 0.0 0.00 0.00 0.00 29 1015.9
20260507101507 77 206 0.0 0.0 0.00 0.00 0.00 34 1015.9
20260507101007 77 173 0.0 0.0 0.00 0.00 0.00 33 1015.9
20260507100506 77 172 0.0 0.0 0.00 0.00 0.00 30 1016.0
20260507100007 77 193 0.0 0.0 0.00 0.00 0.00 29 1016.0
20260507095506 77 159 0.0 0.0 0.00 0.00 0.00 29 1016.1
20260507095007 77 204 0.0 0.0 0.00 0.00 0.00 30 1016.1
20260507094506 77 206 0.0 0.0 0.00 0.00 0.00 33 1016.0
20260507094007 77 256 0.0 0.0 0.00 0.00 0.00 31 1015.9
20260507093507 77 215 0.0 0.0 0.00 0.00 0.00 29 1016.0
20260507093007 77 204 0.0 0.0 0.00 0.00 0.00 30 1016.0
20260507092506 76 159 0.0 0.0 0.00 0.00 0.00 32 1016.0
20260507092007 76 214 0.0 0.0 0.00 0.00 0.00 33 1016.0
20260507091507 76 186 0.0 0.0 0.00 0.00 0.00 36 1016.1
20260507091007 77 198 0.0 0.0 0.00 0.00 0.00 36 1016.1
20260507090507 76 165 0.0 0.0 0.00 0.00 0.00 37 1016.0
20260507090007 76 167 0.0 0.0 0.00 0.00 0.00 38 1015.9
20260507085506 76 206 0.0 0.0 0.00 0.00 0.00 41 1015.8
20260507085007 76 202 0.0 0.0 0.00 0.00 0.00 42 1015.7
20260507084506 75 96 0.0 0.0 0.00 0.00 0.00 42 1015.8
20260507084007 74 166 0.0 0.0 0.00 0.00 0.00 43 1016.0
20260507083507 75 218 0.0 0.0 0.00 0.00 0.00 45 1016.0
20260507083007 74 271 0.0 0.0 0.00 0.00 0.00 45 1015.9
20260507082507 73 237 0.0 0.0 0.00 0.00 0.00 45 1015.9
20260507082007 74 220 0.0 0.0 0.00 0.00 0.00 45 1015.9
20260507081506 73 212 0.0 0.0 0.00 0.00 0.00 46 1015.8
20260507081006 73 181 0.0 0.0 0.00 0.00 0.00 46 1015.8
20260507080506 74 245 0.0 0.0 0.00 0.00 0.00 46 1015.9
20260507075507 74 329 0.0 0.0 0.00 0.00 0.00 47 1015.9
20260507075007 74 253 0.0 0.0 0.00 0.00 0.00 48 1015.9
20260507074507 73 161 0.0 0.0 0.00 0.00 0.00 47 1015.8
20260507074007 74 235 0.0 0.0 0.00 0.00 0.00 48 1015.7
20260507073507 73 157 0.0 0.0 0.00 0.00 0.00 49 1015.7
20260507073007 73 150 0.0 0.0 0.00 0.00 0.00 49 1015.5
20260507072507 72 155 0.0 0.0 0.00 0.00 0.00 48 1015.5
20260507071506 73 165 0.0 0.0 0.00 0.00 0.00 48 1015.6
20260507070011 71 166 0.0 0.0 0.00 0.00 0.00 50 1015.7
20260507065507 71 191 0.0 0.0 0.00 0.00 0.00 50 1015.8
20260507065007 71 212 0.0 0.0 0.00 0.00 0.00 50 1015.8
20260507064507 70 164 0.0 0.0 0.00 0.00 0.00 50 1015.8
20260507064007 70 212 0.0 0.0 0.00 0.00 0.00 49 1015.8
20260507063507 70 245 0.0 0.0 0.00 0.00 0.00 51 1015.7
20260507063007 69 243 0.0 0.0 0.00 0.00 0.00 50 1015.7
20260507062506 68 275 0.0 0.0 0.00 0.00 0.00 51 1015.7
20260507062007 68 267 0.0 0.0 0.00 0.00 0.00 52 1015.7
20260507061507 68 238 0.0 0.0 0.00 0.00 0.00 52 1015.6
20260507061007 68 233 0.0 0.0 0.00 0.00 0.00 52 1015.5
20260507060507 68 245 0.0 0.0 0.00 0.00 0.00 52 1015.5
20260507060006 68 248 0.0 0.0 0.00 0.00 0.00 52 1015.4
20260507055007 68 250 0.0 0.0 0.00 0.00 0.00 55 1015.3
20260507054507 67 142 0.0 0.0 0.00 0.00 0.00 55 1015.3
20260507054007 67 106 0.0 0.0 0.00 0.00 0.00 56 1015.2
20260507053507 66 106 0.0 0.0 0.00 0.00 0.00 58 1015.1
20260507053007 66 106 0.0 0.0 0.00 0.00 0.00 58 1015.1
20260507052507 65 76 0.0 0.0 0.00 0.00 0.00 61 1015.0
20260507052007 65 76 0.0 0.0 0.00 0.00 0.00 62 1014.9
20260507051007 64 79 0.0 0.0 0.00 0.00 0.00 67 1015.0
20260507050507 64 65 0.0 0.0 0.00 0.00 0.00 69 1014.9
20260507050007 64 67 0.0 0.0 0.00 0.00 0.00 70 1015.0
20260507045507 63 67 0.0 0.0 0.00 0.00 0.00 70 1015.0
20260507045007 63 53 0.0 0.0 0.00 0.00 0.00 70 1015.0
20260507044506 63 52 0.0 0.0 0.00 0.00 0.00 69 1015.0
20260507044007 62 52 0.0 0.0 0.00 0.00 0.00 68 1015.0
20260507043507 62 40 0.0 0.0 0.00 0.00 0.00 67 1015.0
20260507042507 60 39 0.0 0.0 0.00 0.00 0.00 65 1014.9
20260507041506 59 25 0.0 0.0 0.00 0.00 0.00 64 1014.9
20260507041007 59 46 0.0 0.0 0.00 0.00 0.00 64 1015.0
20260507040507 59 46 0.0 0.0 0.00 0.00 0.00 63 1015.1
20260507040007 59 46 0.0 0.0 0.00 0.00 0.00 64 1015.0
20260507035506 59 46 0.0 0.0 0.00 0.00 0.00 64 1015.0
20260507035007 59 46 0.0 0.0 0.00 0.00 0.00 63 1015.0
20260507034506 59 46 0.0 0.0 0.00 0.00 0.00 63 1015.0
20260507034006 59 46 0.0 0.0 0.00 0.00 0.00 63 1015.0
20260507033507 59 46 0.0 0.0 0.00 0.00 0.00 62 1014.9
20260507032507 59 46 0.0 0.0 0.00 0.00 0.00 61 1014.8
20260507032007 59 46 0.0 0.0 0.00 0.00 0.00 61 1014.8
20260507031506 59 39 0.0 0.0 0.00 0.00 0.00 61 1014.8
20260507031007 59 19 0.0 0.0 0.00 0.00 0.00 60 1014.8
20260507030506 59 18 0.0 0.0 0.00 0.00 0.00 60 1014.8
20260507030006 60 5 0.0 0.0 0.00 0.00 0.00 59 1014.7
20260507025507 60 5 0.0 0.0 0.00 0.00 0.00 59 1014.7
20260507025007 60 5 0.0 0.0 0.00 0.00 0.00 60 1014.7
20260507024507 59 5 0.0 0.0 0.00 0.00 0.00 60 1014.7
20260507024007 59 5 0.0 0.0 0.00 0.00 0.00 60 1014.6
20260507023507 59 5 0.0 0.0 0.00 0.00 0.00 61 1014.7
20260507022506 59 0 0.0 0.0 0.00 0.00 0.00 60 1014.6
20260507022007 59 355 0.0 0.0 0.00 0.00 0.00 60 1014.6
20260507021506 60 355 0.0 0.0 0.00 0.00 0.00 59 1014.6
20260507021007 60 257 0.0 0.0 0.00 0.00 0.00 59 1014.6
20260507020007 60 257 0.0 0.0 0.00 0.00 0.00 58 1014.5
20260507015506 60 257 0.0 0.0 0.00 0.00 0.00 58 1014.4
20260507015007 61 256 0.0 0.0 0.00 0.00 0.00 58 1014.3
20260507014506 61 257 0.0 0.0 0.00 0.00 0.00 58 1014.3
20260507014007 61 257 0.0 0.0 0.00 0.00 0.00 58 1014.4
20260507013506 61 260 0.0 0.0 0.00 0.00 0.00 58 1014.3
20260507013006 61 262 0.0 0.0 0.00 0.00 0.00 58 1014.3
20260507012507 61 258 0.0 0.0 0.00 0.00 0.00 58 1014.3
20260507012007 61 265 0.0 0.0 0.00 0.00 0.00 58 1014.2
20260507011507 60 266 0.0 0.0 0.00 0.00 0.00 58 1014.1
20260507011007 60 250 0.0 0.0 0.00 0.00 0.00 57 1013.9
20260507010507 60 296 0.0 0.0 0.00 0.00 0.00 57 1013.9
20260507010007 60 296 0.0 0.0 0.00 0.00 0.00 57 1013.9
20260507005506 60 296 0.0 0.0 0.00 0.00 0.00 57 1013.8
20260507005007 60 296 0.0 0.0 0.00 0.00 0.00 57 1013.9
20260507004507 60 296 0.0 0.0 0.00 0.00 0.00 57 1013.9
20260507004007 61 296 0.0 0.0 0.00 0.00 0.00 56 1013.9
20260507003007 61 296 0.0 0.0 0.00 0.00 0.00 56 1013.8
20260507002507 61 296 0.0 0.0 0.00 0.00 0.00 55 1013.8
20260507002007 62 296 0.0 0.0 0.00 0.00 0.00 55 1013.8
20260507001507 62 296 0.0 0.0 0.00 0.00 0.00 55 1013.9
20260507000507 61 296 0.0 0.0 0.00 0.00 0.00 55 1013.9